Location: Cornospital
(48.0620°N, 3.3837°W)
Time: 15:38:36
(UTC+00:00)

Aureole 1 Rocket - Pass Details

Date: 17 June 2021
Orbit: 377 x 1372 km, 73.9° (Epoch: 31 July)

Event Time Altitude Azimuth Distance (km) Brightness Sun altitude
Rises 21:21:05 0° 338° (NNW) 3,234 8.4 -8.6°
Reaches altitude 10° 21:23:13 10° 340° (NNW) 2,438 7.4 -8.9°
Maximum altitude 21:28:56 76° 66° (ENE) 1,032 4.1 -9.5°
Enters shadow 21:35:49 12° 152° (SSE) 2,946 5.8 -10.2°
